FW1801 Weather Reports


Display with metric or nautical units.
time (UTC)temp
F
wind
direction
speed
MPH
gust
MPH
rain 1hr
in
rain 24hr
in
rain mn
in
humidity
%
barometer
mb
20260504081512 38 244 0.0 2.0 0.00 0.00 0.00 78 1012.7
20260504044554 41 244 0.0 2.0 0.00 0.00 0.00 79 1012.9
20260504043053 41 244 0.0 2.0 0.00 0.00 0.00 79 1012.9
20260504041546 42 244 0.0 2.0 0.00 0.00 0.00 78 1012.8
20260504040050 43 244 0.0 0.0 0.00 0.00 0.00 79 1012.9
20260504034544 43 244 0.0 2.0 0.00 0.00 0.00 77 1012.9
20260504033044 44 244 0.0 2.0 0.00 0.00 0.00 76 1012.9
20260504031546 44 244 0.0 1.0 0.00 0.00 0.00 74 1012.9
20260504030042 45 244 0.0 1.0 0.00 0.00 0.00 73 1012.9
20260504024556 46 244 0.0 0.0 0.00 0.00 0.00 72 1013.0
20260504023042 46 244 0.0 1.0 0.00 0.00 0.00 71 1013.1
20260504021542 46 244 0.0 1.0 0.00 0.00 0.00 71 1013.2
20260504020043 46 244 1.0 2.0 0.00 0.00 0.00 70 1013.2
20260504014540 47 244 0.0 2.0 0.00 0.00 0.00 69 1013.1
20260504013040 47 244 1.0 2.0 0.00 0.00 0.00 66 1012.9
20260504011539 48 244 2.0 3.0 0.00 0.00 0.00 63 1012.8
20260504010038 49 244 1.0 3.0 0.00 0.00 0.00 64 1012.6
20260504004546 50 244 1.0 3.0 0.00 0.00 0.00 59 1012.5
20260504003137 50 244 1.0 3.0 0.00 0.00 0.00 58 1012.4
20260504001542 50 186 0.0 2.0 0.00 0.00 0.00 59 1012.1
20260504000054 51 186 0.0 2.0 0.00 0.00 0.00 58 1012.0
20260503234547 53 186 0.0 5.0 0.00 0.00 0.00 50 1011.9
20260503233035 54 158 2.0 6.0 0.00 0.00 0.00 45 1011.7
20260503231533 54 228 0.0 2.0 0.00 0.00 0.00 51 1011.8
20260503230038 54 231 1.0 3.0 0.00 0.00 0.00 46 1011.9
20260503224532 54 158 0.0 3.0 0.00 0.00 0.00 45 1011.8
20260503223038 54 355 0.0 2.0 0.00 0.00 0.00 48 1012.0
20260503221537 55 34 0.0 3.0 0.00 0.00 0.00 45 1012.0
20260503220029 55 199 2.0 3.0 0.00 0.00 0.00 43 1012.1
20260503214528 56 270 1.0 8.0 0.00 0.00 0.00 44 1012.2
20260503213028 56 172 1.0 6.0 0.00 0.00 0.00 44 1012.2
20260503211525 55 33 2.0 13.0 0.00 0.00 0.00 44 1012.1
20260503210025 56 129 1.0 12.0 0.00 0.00 0.00 45 1012.3
20260503204623 54 349 4.0 14.0 0.00 0.00 0.00 45 1012.5
20260503203035 54 71 3.0 11.0 0.00 0.00 0.00 44 1012.4
20260503201522 54 223 3.0 9.0 0.00 0.00 0.00 41 1012.4
20260503200022 55 39 3.0 14.0 0.00 0.00 0.00 39 1012.2
20260503194520 55 133 2.0 8.0 0.00 0.00 0.00 38 1012.4
20260503193019 56 198 1.0 7.0 0.00 0.00 0.00 40 1012.6
20260503191517 56 349 2.0 10.0 0.00 0.00 0.00 36 1012.6
20260503190017 55 151 3.0 12.0 0.00 0.00 0.00 36 1012.7
20260503184515 56 206 4.0 11.0 0.00 0.00 0.00 35 1012.8
20260503183012 54 195 5.0 11.0 0.00 0.00 0.00 37 1013.0
20260503181514 55 234 5.0 13.0 0.00 0.00 0.00 36 1013.3
20260503180016 53 355 4.0 11.0 0.00 0.00 0.00 38 1013.5
20260503174513 53 82 4.0 11.0 0.00 0.00 0.00 39 1013.6
20260503173008 52 355 4.0 12.0 0.00 0.00 0.00 41 1014.0
20260503171502 52 173 2.0 10.0 0.00 0.00 0.00 40 1014.3